Location: Banksville Park
(38.5557°N, 75.1182°W)
Time: 00:54:01
(UTC+00:00)

SL-08 RB Rocket - Pass Details

Date: 19 September 2020
Orbit: 647 x 684 km, 97.8° (Epoch: 30 October)

Event Time Altitude Azimuth Distance (km) Brightness Sun altitude
Exits shadow 00:27:04 19° 153° (SSE) 1,593 5.3 -17.0°
Maximum altitude 00:30:19 65° 75° (ENE) 739 3.7 -17.7°
Drops below altitude 10° 00:34:52 10° 354° (N) 2,097 6.6 -18.5°
Sets 00:37:06 0° 352° (N) 3,008 7.4 -18.9°
